Home > Weather > Bardufoss > Past weeks

Flag for Norway Weather for the Past 2 Weeks in Bardufoss, Norway

Now
21 °F

Partly cloudy.


Feels Like: 21 °F
Forecast: 13 / 28 °F
Wind: No wind

Location: Bardufoss

Current Time: Feb 10, 2016 at 8:13:58 PM

Latest Report: Feb 10, 2016 at 7:50 PM


Visibility: N/A

Pressure: 29.33 "Hg

Humidity: 93%

Dew point: 19 °F

Location of BardufossLocation

Historic Weather in Bardufoss — Graph

°F

Bardufoss Temperature Yesterday

Maximum temperature yesterday: 28 °F (at 9:50 PM)
Minimum temperature yesterday: 14 °F (at 6:20 AM)
Average temperature yesterday: 22 °F

High & Low Weather Summary for the Past Weeks

 TemperatureHumidityPressure
High36 °F (Jan 31, 1:50 PM)100% (Jan 26, 9:50 PM)29.65 "Hg (Jan 26, 9:50 PM)
Low-8 °F (Feb 3, 4:50 AM)51% (Jan 30, 6:50 AM)28.32 "Hg (Jan 30, 9:50 AM)
Average19 °F88%28.99 "Hg
* Reported Jan 26 6:20 PM — Feb 10 6:50 PM, Bardufoss, Weather by CustomWeather, © 2016

Note: Actual official high and low records may vary slightly from our data, if they occured in-between our weather recording intervals... More about our weather records

Advertising

Bardufoss Weather History for the Previous 24 Hours

 ConditionsComfort  
Time TempWeatherWind HumidityBarometerVisibility
6:50 PM
Wed, Feb 10
21 °FLight mixture of precip. Partly cloudy.2 mph93%29.33 "HgN/A
6:20 PM21 °FLight mixture of precip. Partly cloudy.1 mph93%29.30 "HgN/A
5:50 PM21 °FLight mixture of precip. Partly cloudy.1 mph100%29.30 "HgN/A
5:20 PM21 °FLight mixture of precip. Partly cloudy.1 mph100%29.30 "HgN/A
4:50 PM21 °FLight snow. Partly cloudy.1 mph100%29.30 "HgN/A
4:20 PM21 °FLight mixture of precip. Partly cloudy.2 mph93%29.27 "HgN/A
3:50 PM21 °FLight mixture of precip. Partly cloudy.1 mph93%29.27 "HgN/A
3:20 PM21 °FLight mixture of precip. Broken clouds.2 mph93%29.27 "HgN/A
2:50 PM23 °FLight mixture of precip. Partly sunny.1 mph93%29.27 "HgN/A
2:20 PM21 °FLight mixture of precip. Partly sunny.No wind100%29.24 "HgN/A
1:50 PM23 °FLight mixture of precip. Scattered clouds.1 mph93%29.24 "HgN/A
1:20 PM25 °FLight mixture of precip. Scattered clouds.1 mph93%29.24 "HgN/A
12:50 PM25 °FLight mixture of precip. Broken clouds.No wind93%29.21 "HgN/A
12:20 PM25 °FLight snow. Broken clouds.1 mph100%29.21 "HgN/A
11:50 AM25 °FLight snow. Broken clouds.No wind93%29.21 "Hg6 mi
11:20 AM25 °FLight snow. Partly sunny.No wind100%29.21 "HgN/A
10:50 AM25 °FLight snow. Partly sunny.No wind100%29.18 "HgN/A
10:20 AM25 °FLight snow. Partly sunny.1 mph93%29.18 "HgN/A
9:50 AM25 °FLight mixture of precip. Partly sunny.1 mph93%29.18 "HgN/A
9:20 AM25 °FLight mixture of precip. Partly sunny.3 mph100%29.15 "HgN/A
8:50 AM27 °FLight mixture of precip. Partly sunny.3 mph93%29.15 "HgN/A
8:20 AM27 °FLight mixture of precip. Passing clouds.1 mph93%29.12 "HgN/A
7:50 AM27 °FLight snow. Passing clouds.2 mph100%29.12 "HgN/A
7:20 AM27 °FSnow. Passing clouds.3 mph100%29.12 "HgN/A
6:50 AM27 °FSnow. Passing clouds.3 mph100%29.09 "HgN/A
6:20 AM28 °FLight snow. Ice fog.2 mph93%29.09 "Hg2 mi
5:50 AM28 °FLight snow. Ice fog.3 mph93%29.09 "Hg2 mi
5:20 AM28 °FLight snow. Ice fog.2 mph93%29.09 "Hg1 mi
4:50 AM28 °FLight snow. Ice fog.3 mph100%29.09 "Hg1 mi
4:20 AM28 °FLight snow. Ice fog.3 mph93%29.06 "Hg4 mi
3:50 AM28 °FLight snow. Overcast.3 mph93%29.06 "Hg3 mi
3:20 AM28 °FLight snow. Overcast.5 mph100%29.06 "Hg4 mi
2:50 AM28 °FLight snow. Ice fog.3 mph100%29.06 "Hg2 mi
2:20 AM30 °FLight snow. Ice fog.3 mph93%29.03 "Hg2 mi
1:50 AM28 °FLight snow. Overcast.5 mph100%29.03 "Hg3 mi
1:20 AM30 °FLight snow. Ice fog.3 mph93%29.03 "Hg3 mi
12:50 AM30 °FLight snow. Overcast.2 mph93%29.03 "Hg3 mi
12:20 AM30 °FLight snow. Overcast.2 mph93%29.03 "Hg3 mi
11:50 PM
Tue, Feb 9
28 °FLight snow. Mostly cloudy.2 mph100%29.00 "Hg4 mi
11:20 PM28 °FLight snow. Overcast.1 mph100%29.00 "Hg5 mi
9:50 PM28 °FLight snow. Ice fog.1 mph100%29.00 "Hg1 mi
8:50 PM27 °FLight snow. Ice fog.No wind100%29.00 "Hg1 mi
Weather by CustomWeather, © 2016

See weather overviewHow to use our weather pages